Tracking 22441 objects as of 28-Feb-2021
HD Live streaming from Space Station
objects crossing your sky now

DELTA 1 DEB

Track DELTA 1 DEB now!
10-day predictions


NORAD ID: 35533
Int'l Code: 1975-052LG
Perigee: 785.0 km
Apogee: 807.5 km
Inclination: 99.7 °
Period: 100.6 minutes
Semi major axis: 7167 km
RCS: 0.0136 m2 (small)
Launch date: June 12, 1975
Source: United States (US)
Launch site: AIR FORCE WESTERN TEST RANGE (AFWTR)

Note: This is SATELLITE DEBRIS
aabbcc
Your satellite tracking list
Your tracking list is empty




NASA's NSSDC Master Catalog

Two Line Element Set (TLE):
1 35533U 75052LG  21059.38059753  .00001490  00000-0  58858-3 0  9996
2 35533  99.7434 205.7154 0015707  61.4445 324.2991 14.30779511930779
Source of the keplerian elements: AFSPC